{"data":{"norad_id":65218,"epoch":"2026-05-24T18:14:05.311680Z","epoch_age_seconds":98948,"freshness":"FRESH","line1":"1 65218U 25176W   26144.75978370  .00009238  00000+0  28420-3 0  9996","line2":"2 65218  53.1581 158.9261 0001164  82.6534 277.4600 15.34401244 44775","mean_motion":15.34401244,"eccentricity":0.0001164,"inclination_deg":53.1581,"raan_deg":158.9261,"arg_perigee_deg":82.6534,"mean_anomaly_deg":277.46,"bstar":0.0002842,"rev_number":4477,"period_min":93.847681995232,"perigee_km":461.90326940586,"apogee_km":463.49581615302,"semimajor_km":6840.8365427794,"source":"CELESTRAK","updated_at":"2026-05-25T13:38:20.721894Z"}}